DECAYED

COSMOS 2251 DEB, 34457 (Decayed)

Orbit data source: Space-Track

COSMOS 2251 DEB, 34457 was space debris in LEO originally from a launch on Wed, 16 Jun 1993 UTC launched from the Plesetsk Missile And Space Complex (PKMTR). The debris from Iridium 33, an American commercial communications satellite, has been tracked extensively since its accidental collision with the defunct Russian satellite Cosmos 2251 in 2009. This event, occurring at high speed in low Earth orbit (LEO), generated thousands of pieces of space debris, significantly increasing the risk of further collisions. The Iridium 33 debris cloud has impacted space traffic management and orbital debris mitigation strategies, making it a subject of ongoing study in space situational awareness.

Not visible in the next 10 days
Identifier
34457, 1993-036TA
Orbit
Decayed
Country
Flag of CISCIS
Related business
Manufacturer
Unknown
Mission
Decayed spacecraft
Bus & Motor
Unknown
Mass
Unknown
Launch date (UTC)
1993-06-16 (33 years ago)
Launch vehicle
Unknown
Launch site
Plesetsk Missile And Space Complex (PKMTR)
Object type
Payload
Rocket body
Debris
Shape & HBR
Unknown shape, 0.1 m
Radar Cross Section
Small (<0.1 m²)

Expand to show TLE details & history
Last TLE update: 9 months ago

TLE from 9 months ago
0 COSMOS 2251 DEB
1 34457U 93036TA  25135.40578540  .09744951  19250-5  50013-2 0  9995
2 34457  73.9380 153.1025 0015821 265.2818  94.6624 16.20002904865746
Epoch: 2025-05-15T09:44Z
TLE epoch observation values (Epoch: 2025-05-15T09:44:19.858Z)
Latitude
-0.00003°
Longitude
133.64347°
Altitude
223.233 km
Speed
7.772 km/s
True Right ascension
10h 12m 24s
True Declination
0° 00' 00"
Sunlit
Object was in daylight at epoch
Visualization orbit readout
Latitude
Unknown
Longitude
Unknown
Altitude
Unknown
Speed
Unknown
Apparent Right ascension
Unknown
Apparent Declination
Unknown
Sunlit
N/A
Visualization observer readout
Local Sidereal Time
04:20:45
Azimuth
Unknown
Elevation
Unknown
Doppler factor
Unknown
Orbital elements
Apogee altitude
227.412 km
Perigee altitude
206.543 km
Semi-major axis
6,595.115 km
Eccentricity
0.00158
Inclination
73.938°
RAAN
153.1025°
Arg. of periapsis
265.2818°
True anomaly
94.84307°
Mean anomaly
94.6624°
Eccentric anomaly
94.75274°
Mean motion
4.05238 °/min
Orbital period
88.84 mins
BSTAR
0.0050013
Loading maneuver chart data...
Computing Atmospheric mass density...

Documentation

Showing up to 5 results
|